Temperature
17 17 17 17 20 21 21 20 19 18 17 15 15 16 17 17 17 16 11 11 11 12 12 12 12 12 12 12 12 12 13 13 13 13 13 13 13 13 14 14 14 14 14 14 14 14 14 14 14
16 17 17 18 21 21 20 19 18 17 15 13 13 14 15 14 12 11 11 11 11 11 11 11 12 11 12 12 12 12 12 13 13 13 13 13 13 13 13 13 13 13 14 14 14 14 14 14 14
16 17 17 20 20 21 20 18 18 15 13 13 13 13 14 13 10 10 10 11 11 11 11 11 11 11 11 12 12 12 12 12 12 12 12 12 12 13 13 13 13 13 13 13 14 14 14 14 14
16 16 18 20 19 19 18 17 16 15 13 12 13 13 11 10 9 10 10 10 10 10 11 11 11 11 11 11 12 12 12 12 12 12 12 12 12 12 13 13 13 13 13 13 13 13 13 13 13
16 17 19 19 18 17 16 15 14 15 15 13 13 14 11 9 10 10 10 10 10 10 10 10 11 11 11 11 12 12 12 12 12 12 12 12 12 12 12 12 12 12 13 13 13 13 13 13 13
16 18 19 19 18 16 15 14 14 15 14 12 12 13 11 9 10 10 10 9 9 10 10 10 10 10 11 11 11 11 11 12 12 12 12 12 12 12 12 12 12 12 12 12 12 13 13 13 13
17 18 18 19 18 16 15 13 14 15 14 12 11 13 11 9 9 9 9 9 9 9 10 10 10 10 10 11 11 11 11 11 11 11 12 12 12 12 12 12 12 12 12 12 12 12 12 12 12
14 17 17 17 17 16 14 12 11 12 13 10 10 12 11 8 9 9 9 9 9 9 9 10 10 10 10 10 10 10 11 11 11 11 11 11 11 11 11 11 11 11 12 12 12 12 12 12 12
14 17 17 17 16 15 12 12 10 9 10 8 8 9 9 9 9 9 8 9 9 9 9 9 9 9 9 9 10 10 10 10 10 11 11 11 11 11 11 11 11 11 11 11 11 11 11 11 12
14 16 16 14 14 14 12 11 10 10 10 9 8 8 9 9 8 8 8 8 8 9 9 9 9 9 9 9 9 10 10 10 10 10 10 10 10 10 10 11 11 11 11 11 11 11 11 11 11
13 14 13 11 10 11 11 10 9 11 12 11 9 8 8 8 8 8 8 8 8 8 8 8 8 8 9 9 9 9 9 10 10 10 10 10 10 10 10 10 10 10 10 11 11 11 11 11 11
12 11 10 10 8 9 10 9 9 9 10 9 8 8 8 8 8 7 7 7 7 8 8 8 8 8 8 8 9 9 9 9 9 9 9 9 10 10 10 10 10 10 10 10 10 10 10 10 10
11 10 8 8 7 8 8 8 9 8 8 8 8 8 8 7 7 7 7 7 7 7 7 7 8 8 8 8 8 8 8 9 9 9 9 9 9 9 9 9 9 9 9 9 10 10 10 10 10
10 9 8 8 8 7 8 8 8 8 7 7 7 7 7 7 7 6 6 6 7 7 7 7 7 7 7 7 7 8 8 8 8 8 8 8 8 9 9 9 9 9 9 9 9 9 9 9 9
8 10 10 9 8 7 8 9 9 8 7 6 6 6 6 6 6 6 6 6 6 6 6 6 6 7 7 7 7 7 7 7 7 8 8 8 8 8 8 8 8 8 8 8 8 8 8 9 9
10 11 12 10 8 7 9 12 10 7 6 6 6 5 5 5 5 6 6 6 6 6 6 6 6 6 6 6 6 6 7 7 7 7 7 7 7 7 7 8 8 8 8 8 8 8 8 8 8
11 12 12 11 8 8 9 11 10 6 6 6 6 5 5 5 5 5 5 6 6 6 6 6 6 6 6 6 6 6 6 6 6 6 6 6 7 7 7 7 7 7 7 7 7 7 7 7 7
12 12 11 11 9 8 8 9 9 6 5 6 6 5 4 4 5 5 5 5 5 5 5 5 5 5 5 5 5 5 5 5 5 6 6 6 6 6 6 6 6 6 6 6 6 6 7 7 7
10 10 11 10 8 7 8 9 9 7 6 5 5 5 4 4 5 5 5 5 5 5 5 5 5 5 5 5 5 5 5 5 5 5 5 5 5 5 5 5 6 6 6 6 6 6 6 6 6
9 9 10 9 7 7 8 8 8 7 6 5 5 5 4 4 4 4 4 4 5 5 5 5 4 4 4 4 4 4 4 4 4 4 5 5 4 5 5 5 5 5 5 5 5 5 5 5 5
8 8 9 8 7 6 6 9 8 7 5 4 4 4 4 3 3 3 4 4 4 4 4 4 4 4 4 4 3 4 4 4 4 4 4 4 4 4 4 4 4 4 4 4 4 5 5 4 5
8 7 6 6 7 8 7 10 10 7 6 5 4 4 3 3 3 3 3 3 3 4 4 4 4 3 3 3 3 3 3 3 3 3 3 4 4 4 4 4 4 4 4 4 4 4 4 4 4
6 5 5 5 6 7 7 7 10 7 7 6 5 4 3 2 2 2 2 2 3 3 3 3 3 3 3 3 3 3 3 3 2 3 3 3 3 3 3 3 3 3 3 3 3 3 3 3 3
4 5 5 5 6 7 7 7 10 8 7 6 5 3 2 1 1 1 2 2 2 2 2 3 3 3 3 2 2 2 2 2 2 2 2 2 2 2 2 2 2 2 2 3 3 3 3 3 3
4 6 7 7 7 8 6 6 8 6 5 4 4 3 2 1 1 1 1 1 1 2 2 2 2 2 2 2 2 2 2 2 1 1 2 2 2 2 2 2 2 2 2 2 2 2 2 2 2
4 5 7 8 9 9 5 6 8 4 3 2 1 1 1 1 1 1 1 1 1 1 2 2 2 2 2 2 2 1 1 1 1 1 1 1 1 1 1 1 1 1 1 1 2 2 2 2 2
4 5 4 5 5 6 7 6 5 4 3 2 1 1 0 0 0 0 0 1 1 1 1 1 1 1 1 1 1 1 1 0 0 0 0 0 0 0 0 1 1 1 1 1 1 1 1 1 1
3 3 4 4 6 7 8 7 7 5 4 3 2 1 0 0 -0 -0 0 0 0 0 0 0 0 0 0 0 0 0 0 -0 -0 -0 -0 -0 -0 0 0 0 0 0 0 0 0 0 1 0 1
2 2 3 4 4 6 6 7 5 4 4 3 2 1 0 -0 -0 -0 -0 0 -0 -0 -0 -0 -0 -0 -0 -0 -0 -0 -0 -1 -1 -1 -1 -1 -1 -0 -0 -0 -0 -0 -0 -0 -0 -0 0 -0 0
1 2 3 4 3 3 5 6 3 2 2 1 0 -0 -0 -1 -1 -1 -0 -0 -1 -1 -1 -1 -1 -1 -1 -1 -1 -1 -1 -1 -1 -1 -1 -1 -1 -1 -1 -1 -1 -1 -1 -1 -1 -0 -0 -1 -1
Wind_Speed
5 2 2 2 4 4 7 5 3 4 4 2 2 2 2 1 0 2 3 3 3 3 3 4 6 8 9 10 10 10 10 10 8 8 8 9 9 9 10 10 10 10 10 11 11 12 12 12 12
3 1 2 3 5 8 6 6 7 4 3 4 3 2 2 1 2 3 3 2 3 4 4 4 6 7 9 10 10 10 10 10 10 9 9 9 9 9 10 10 9 9 10 10 11 11 11 12 12
1 1 2 3 6 8 5 5 6 4 4 4 4 1 0 1 2 3 2 3 3 4 4 5 6 7 8 9 10 10 10 10 10 10 10 10 9 9 9 9 9 9 10 10 10 10 11 11 11
2 2 2 5 9 7 4 3 5 7 4 2 3 3 2 2 2 2 3 4 5 4 5 6 7 8 8 8 9 9 9 9 9 10 10 10 9 10 9 9 9 9 9 9 10 10 10 9 9
1 3 5 7 9 5 2 3 5 6 5 4 4 3 3 3 3 3 3 4 5 4 4 5 6 7 7 7 8 8 9 9 9 9 9 9 9 9 9 8 8 9 9 8 9 9 9 9 9
3 3 7 11 10 5 4 4 5 5 4 4 4 3 3 4 3 3 3 3 4 4 4 5 6 6 6 6 6 7 8 8 8 9 8 9 9 9 9 8 8 8 8 8 8 8 8 8 9
3 4 7 8 8 7 5 5 5 6 6 4 3 3 3 3 2 3 4 4 4 4 3 3 4 4 5 6 6 6 7 7 7 8 8 8 8 8 8 8 8 8 7 7 7 7 8 8 8
1 3 5 6 8 6 4 5 2 4 4 2 2 4 2 3 4 4 4 4 3 3 3 2 3 3 3 3 5 6 6 7 7 8 8 7 7 7 7 8 7 7 6 6 7 7 7 7 7
2 5 8 7 6 4 5 5 2 1 3 2 1 1 2 5 6 5 4 3 2 2 2 1 2 2 2 2 3 4 5 6 6 6 7 5 4 4 5 6 7 6 6 5 6 6 6 6 6
3 6 7 2 2 3 5 4 4 4 4 3 3 1 2 6 6 6 5 4 3 2 2 1 1 1 1 1 1 1 2 3 3 3 4 3 3 3 3 4 6 5 5 5 5 5 5 3 3
2 4 3 2 1 2 4 3 3 5 6 6 5 5 5 6 6 6 6 5 5 4 3 1 1 1 0 0 1 1 1 1 2 2 2 2 2 2 2 2 3 3 2 3 3 3 2 2 2
3 2 2 1 1 2 3 3 3 6 5 1 2 4 6 7 7 7 7 6 5 4 3 2 2 1 1 1 1 1 1 0 1 1 1 1 1 1 1 1 2 1 1 1 1 1 1 1 1
4 3 1 1 2 2 2 4 4 5 5 2 1 4 6 7 7 6 5 5 4 4 3 3 2 2 2 2 1 1 1 1 1 1 0 0 1 1 1 1 1 1 1 1 1 1 1 1 0
2 3 2 2 3 2 3 5 4 7 4 3 3 4 5 6 6 5 5 5 4 4 4 3 3 3 3 2 2 2 2 2 2 1 1 1 1 1 1 1 1 1 1 1 1 1 0 0 1
3 3 3 3 3 3 3 7 8 6 4 4 4 4 4 4 4 5 5 5 5 5 4 3 3 3 3 3 3 2 2 2 2 2 2 2 2 2 2 2 2 1 1 1 1 1 1 1 1
3 4 5 3 3 3 6 10 6 4 5 6 5 4 4 4 4 5 4 4 4 4 4 4 3 3 3 3 3 2 2 2 2 3 3 3 2 2 2 2 2 1 1 1 1 1 1 1 1
4 7 8 5 3 3 7 9 4 3 5 6 6 5 4 4 4 4 4 4 4 4 4 4 3 3 3 3 2 2 2 2 2 2 2 3 3 3 3 2 2 2 1 1 2 2 2 2 2
7 8 8 7 3 4 8 11 8 5 5 7 6 6 5 5 5 4 4 4 4 4 4 4 3 3 2 2 2 1 2 2 2 2 2 3 3 4 3 3 3 3 2 2 2 2 2 2 3
5 7 9 7 2 5 10 13 11 7 6 8 7 6 6 6 5 3 3 3 3 3 3 3 3 3 2 2 2 2 2 2 2 2 3 3 3 4 4 4 3 3 3 3 3 3 3 2 2
6 7 9 6 3 5 8 13 11 8 8 8 8 7 6 5 4 3 3 3 4 4 4 4 4 4 4 3 3 2 3 2 2 2 3 3 4 4 4 4 4 4 4 4 4 3 3 3 2
7 9 8 7 4 4 6 10 8 6 6 5 6 6 6 6 5 4 4 4 4 4 4 4 4 4 4 3 2 2 1 2 2 3 3 4 4 5 5 5 4 5 4 4 5 4 5 4 4
7 6 7 6 5 5 4 8 7 6 6 5 5 5 5 4 4 4 4 4 4 4 4 4 4 4 4 4 4 4 3 3 4 3 3 3 4 5 5 5 5 5 5 5 5 6 5 6 5
4 2 5 6 6 6 6 7 7 4 6 6 4 3 3 3 4 4 4 4 4 3 3 3 3 3 3 4 4 4 4 4 3 3 3 3 3 4 5 5 5 5 5 5 6 6 6 6 6
1 1 2 3 4 8 8 9 8 4 6 4 3 2 2 2 2 3 3 2 2 2 2 3 3 3 3 3 4 5 5 5 4 4 4 3 3 4 5 5 6 6 6 6 6 6 7 7 8
2 2 2 4 5 7 3 7 7 3 3 4 4 3 2 1 1 2 2 2 2 2 2 2 3 3 3 4 4 5 5 6 6 5 5 4 4 4 5 5 6 6 7 7 7 7 8 8 9
5 5 5 5 6 5 3 7 4 1 1 2 2 2 2 1 1 2 2 2 3 3 3 3 3 3 3 4 4 5 5 5 5 6 5 5 5 5 6 6 7 8 8 8 7 7 8 8 9
4 5 3 3 4 6 6 5 4 2 2 1 1 1 2 2 2 2 2 2 3 3 3 4 4 4 4 4 4 5 5 5 6 6 6 5 5 5 6 7 7 8 8 8 8 7 8 8 9
2 3 3 4 4 7 7 6 4 3 3 2 1 2 3 3 2 3 2 2 3 3 3 3 4 5 5 4 4 4 5 6 6 6 6 6 6 6 6 7 7 7 8 8 8 8 8 8 8
3 4 3 4 4 5 6 4 0 3 2 2 2 3 3 3 3 3 3 3 3 3 2 3 3 4 4 4 4 4 4 5 5 5 6 6 6 6 6 7 7 7 7 7 7 8 8 9 9
4 5 6 5 5 5 6 6 2 1 2 2 3 4 4 3 3 3 4 3 3 3 2 3 3 3 4 4 3 4 4 4 4 5 5 5 5 5 6 6 6 7 7 7 8 8 8 9 9
Wind_Direction
336 312 233 216 207 221 229 202 184 164 162 143 127 163 169 168 249 90 84 98 87 99 83 64 51 58 58 57 56 55 54 55 61 62 63 66 71 74 74 74 75 76 76 75 74 73 70 72 73
325 268 212 211 227 226 220 202 194 173 131 135 141 155 162 155 50 83 110 109 105 103 94 80 67 64 60 59 57 55 55 54 57 58 61 63 66 70 72 73 73 73 76 77 77 74 73 73 74
277 276 212 201 227 234 214 179 186 149 134 161 158 157 211 110 106 112 93 132 123 107 99 90 80 71 63 60 58 56 53 53 57 56 56 58 60 65 67 68 70 72 75 77 79 76 74 72 72
216 180 195 224 226 230 234 155 153 155 159 174 173 151 141 54 91 90 111 139 132 114 100 98 84 77 68 62 59 56 53 52 55 56 55 54 55 59 63 65 68 73 76 78 81 79 76 72 72
215 202 206 223 230 219 209 174 165 173 171 175 187 178 149 120 77 97 127 143 137 119 98 99 86 82 75 66 61 58 55 53 55 57 56 54 53 54 59 63 66 72 76 78 79 80 80 75 72
178 206 222 229 223 209 196 187 185 196 179 167 188 189 147 118 113 128 143 146 131 120 105 98 83 76 75 72 64 60 57 55 56 56 57 55 53 53 52 60 66 71 74 76 79 81 80 77 72
205 209 233 234 227 221 203 180 202 206 200 193 194 189 152 151 139 148 147 134 124 117 107 93 86 81 75 72 68 61 57 54 56 56 54 54 53 52 50 54 62 67 72 75 78 80 79 75 72
223 197 222 226 225 223 176 172 205 218 208 144 192 207 177 167 150 148 140 136 129 119 109 96 89 84 90 89 75 66 62 58 58 57 55 54 56 55 52 51 54 60 69 77 81 80 78 76 71
215 221 230 224 220 200 162 176 160 151 157 161 192 310 41 131 147 148 146 150 144 133 120 107 91 82 76 95 88 82 73 64 64 61 57 57 61 59 56 49 48 52 62 76 84 83 82 82 78
211 225 232 226 218 178 171 188 172 174 190 206 206 198 121 143 158 167 173 178 181 182 176 151 125 101 86 93 127 113 91 79 65 58 53 52 57 51 46 56 52 50 62 75 83 87 92 87 84
205 228 220 207 181 174 178 190 191 205 226 230 225 201 168 166 174 187 191 192 194 194 188 193 191 178 162 196 180 149 124 95 69 56 42 36 57 54 40 47 57 50 69 77 84 99 82 70 60
187 218 230 223 176 185 193 191 211 229 244 331 246 182 174 181 190 197 200 200 199 199 203 205 212 212 220 233 226 211 176 141 85 57 33 32 41 41 26 22 22 22 34 49 70 66 66 59 62
208 204 203 162 145 182 196 220 240 248 248 272 145 169 185 193 201 203 206 204 200 207 216 222 218 218 220 221 236 235 228 211 207 219 221 304 9 341 354 352 353 349 348 0 13 64 57 31 358
183 181 192 219 210 216 227 245 241 251 233 219 205 199 201 204 206 204 206 211 213 221 228 228 229 227 226 227 228 231 236 229 218 219 232 238 254 294 303 311 310 325 329 322 307 274 237 304 308
159 183 221 229 222 214 228 246 231 237 208 219 223 214 203 208 207 212 215 221 222 227 232 231 230 233 233 234 232 234 237 234 230 226 231 234 243 260 268 272 271 290 290 303 292 274 251 267 281
189 216 234 212 212 215 229 252 224 207 211 229 229 217 211 215 220 224 225 229 230 228 229 231 230 229 237 246 247 244 243 239 239 231 230 234 240 248 250 257 260 269 273 282 273 270 258 247 266
209 233 242 232 208 218 228 255 234 204 225 238 233 226 224 228 231 233 233 231 232 228 224 225 221 224 229 237 241 242 245 250 256 249 245 241 236 237 238 242 240 233 252 262 264 252 263 259 263
229 237 242 242 215 229 239 254 256 239 232 243 239 232 231 233 235 230 230 229 229 225 222 222 215 221 224 219 223 234 244 248 257 251 246 242 240 238 236 236 227 220 228 241 255 254 253 262 259
242 242 253 257 249 248 252 261 268 255 241 245 243 238 239 240 240 229 222 221 221 217 214 217 217 212 200 204 222 233 245 245 247 250 251 247 244 245 243 244 226 222 229 239 248 255 245 258 263
234 246 259 261 255 256 268 270 267 248 236 238 240 242 242 243 237 227 221 215 215 217 215 213 217 212 207 214 225 238 241 245 245 251 253 250 248 247 247 250 239 229 231 236 236 247 247 250 246
238 243 254 263 285 249 277 268 243 231 225 233 236 243 247 242 239 231 224 226 223 222 222 218 217 214 211 212 209 208 227 247 247 251 256 256 250 245 240 242 246 238 230 233 232 232 243 240 240
248 242 252 255 256 256 247 273 248 219 221 227 232 236 248 252 244 238 230 234 233 232 228 224 217 212 209 205 210 213 223 235 249 251 249 255 249 248 240 240 244 245 237 234 235 232 241 237 237
250 257 243 241 241 259 235 254 260 198 229 233 231 238 251 256 243 238 236 237 240 237 229 222 214 213 210 208 218 225 236 247 254 256 251 257 258 252 249 246 247 247 244 240 239 237 238 235 235
191 204 211 216 229 249 236 234 262 228 223 229 224 243 271 279 258 247 246 242 245 240 226 218 208 218 217 214 223 228 237 245 251 256 259 260 262 258 253 250 249 250 249 244 241 240 240 240 237
210 224 247 230 226 244 198 231 255 230 222 228 244 259 297 301 267 257 251 247 247 239 230 224 214 222 223 222 230 236 240 244 247 254 255 258 261 262 259 253 250 251 251 249 243 242 240 241 237
215 224 235 255 257 264 210 240 255 145 280 273 275 284 295 302 288 282 266 253 245 238 239 231 226 234 235 234 239 244 245 246 251 253 257 257 259 262 263 255 251 252 253 250 245 245 242 244 241
202 218 262 264 274 267 251 255 280 222 257 258 288 295 291 291 292 294 280 266 258 249 243 239 238 245 246 245 252 252 249 250 256 259 259 260 262 266 262 255 250 250 250 249 246 244 242 245 243
252 187 189 217 249 260 261 254 252 223 228 246 286 289 301 312 313 312 301 282 273 265 260 256 250 250 251 248 249 257 259 259 261 262 262 264 267 268 266 260 254 251 249 248 245 247 244 245 245
180 185 209 219 248 253 270 264 220 219 234 257 286 304 311 317 318 315 310 301 293 282 267 265 264 264 262 259 258 263 269 271 268 265 268 271 272 271 266 261 255 251 250 249 246 244 243 246 247
226 220 203 222 231 235 259 270 67 269 326 301 301 313 315 311 311 312 311 309 302 297 290 282 277 270 271 272 269 269 276 278 281 282 283 282 279 278 271 265 258 253 251 248 248 246 245 246 246
Height
1512 1513 1514 1517 1517 1514 1512 1514 1516 1520 1523 1527 1527 1527 1526 1527 1528 1534 1535 1533 1533 1535 1536 1537 1538 1539 1539 1540 1540 1540 1540 1540 1540 1540 1541 1541 1541 1540 1540 1540 1540 1540 1540 1539 1539 1539 1539 1539 1539
1512 1514 1516 1517 1512 1512 1512 1513 1517 1520 1525 1527 1528 1529 1529 1530 1532 1532 1531 1532 1533 1534 1536 1537 1538 1538 1539 1539 1540 1540 1540 1540 1540 1540 1541 1541 1541 1541 1540 1540 1540 1540 1540 1540 1540 1540 1540 1540 1540
1512 1514 1516 1513 1510 1507 1509 1514 1517 1523 1526 1527 1528 1529 1530 1531 1531 1531 1531 1531 1533 1534 1535 1536 1537 1538 1538 1539 1539 1539 1540 1540 1540 1540 1540 1540 1541 1540 1541 1540 1540 1540 1540 1540 1540 1540 1540 1540 1540
1513 1515 1516 1512 1510 1511 1513 1516 1520 1523 1527 1528 1528 1529 1530 1531 1530 1530 1530 1531 1533 1534 1535 1536 1537 1537 1538 1538 1538 1539 1539 1540 1540 1540 1540 1540 1540 1540 1540 1540 1541 1541 1540 1540 1540 1540 1540 1540 1541
1513 1514 1512 1511 1510 1514 1518 1520 1522 1522 1524 1527 1528 1527 1529 1529 1529 1529 1530 1531 1532 1534 1534 1535 1536 1537 1537 1538 1538 1538 1539 1539 1539 1539 1540 1540 1540 1540 1540 1540 1540 1540 1540 1540 1540 1540 1540 1540 1541
1514 1512 1509 1507 1508 1515 1519 1522 1523 1522 1524 1526 1528 1528 1528 1528 1528 1528 1529 1530 1532 1533 1534 1535 1535 1536 1536 1537 1537 1538 1538 1538 1538 1539 1539 1539 1539 1539 1540 1540 1540 1540 1540 1540 1540 1540 1540 1540 1541
1513 1510 1506 1505 1508 1513 1518 1521 1522 1521 1523 1526 1526 1527 1527 1527 1527 1528 1529 1530 1531 1532 1533 1534 1534 1535 1536 1536 1537 1537 1537 1537 1538 1538 1538 1538 1539 1539 1539 1540 1540 1539 1539 1540 1540 1540 1540 1540 1540
1511 1511 1509 1508 1509 1511 1518 1521 1522 1522 1523 1525 1526 1526 1526 1526 1526 1527 1528 1529 1530 1531 1531 1532 1533 1534 1534 1535 1536 1536 1536 1536 1536 1537 1537 1537 1538 1538 1539 1539 1539 1539 1539 1539 1539 1539 1540 1540 1540
1511 1511 1506 1507 1509 1511 1518 1520 1522 1522 1523 1523 1524 1525 1524 1524 1524 1525 1527 1527 1528 1529 1530 1531 1532 1532 1533 1534 1534 1535 1535 1535 1535 1536 1536 1536 1537 1537 1538 1538 1538 1538 1539 1539 1539 1539 1539 1540 1540
1511 1507 1506 1511 1512 1513 1517 1519 1521 1521 1522 1522 1523 1522 1522 1522 1523 1524 1524 1525 1526 1527 1528 1529 1530 1530 1531 1532 1532 1533 1534 1534 1534 1534 1535 1535 1535 1536 1536 1537 1537 1537 1538 1538 1538 1538 1538 1539 1539
1511 1508 1511 1514 1515 1516 1517 1519 1520 1519 1518 1519 1520 1520 1520 1521 1521 1522 1522 1523 1524 1525 1526 1527 1528 1529 1529 1530 1531 1531 1532 1532 1533 1533 1533 1533 1534 1534 1535 1535 1536 1536 1536 1537 1537 1537 1537 1537 1538
1512 1514 1515 1515 1516 1517 1517 1518 1519 1518 1517 1518 1518 1518 1518 1518 1519 1519 1520 1521 1522 1523 1523 1525 1526 1526 1527 1528 1529 1529 1530 1530 1531 1531 1531 1532 1532 1532 1533 1533 1534 1534 1535 1535 1535 1535 1536 1536 1536
1512 1514 1515 1516 1517 1517 1518 1518 1518 1516 1516 1516 1516 1516 1516 1516 1517 1517 1518 1519 1519 1520 1521 1522 1523 1524 1525 1526 1526 1527 1527 1528 1528 1529 1529 1530 1530 1530 1531 1531 1532 1532 1533 1533 1533 1534 1534 1535 1535
1512 1514 1515 1516 1516 1517 1517 1516 1517 1512 1514 1514 1514 1514 1514 1514 1514 1515 1515 1515 1516 1517 1518 1519 1520 1521 1522 1523 1524 1524 1525 1525 1526 1526 1527 1527 1528 1528 1528 1529 1529 1530 1531 1531 1531 1532 1532 1533 1533
1513 1513 1513 1514 1515 1515 1516 1512 1512 1511 1512 1512 1512 1512 1512 1512 1512 1512 1512 1513 1514 1515 1516 1517 1518 1519 1519 1520 1521 1522 1522 1523 1523 1524 1524 1525 1525 1525 1526 1526 1527 1527 1528 1528 1529 1530 1530 1531 1531
1511 1509 1506 1510 1513 1514 1515 1502 1506 1508 1509 1509 1510 1510 1509 1509 1509 1509 1510 1510 1511 1512 1513 1514 1515 1515 1516 1517 1518 1519 1519 1520 1520 1521 1521 1522 1522 1523 1523 1523 1524 1524 1525 1526 1526 1527 1527 1528 1528
1506 1501 1500 1506 1511 1512 1510 1501 1504 1506 1507 1507 1507 1507 1507 1507 1507 1507 1507 1508 1508 1509 1510 1511 1511 1512 1513 1514 1515 1515 1516 1516 1517 1517 1518 1518 1519 1519 1520 1521 1521 1522 1522 1523 1524 1524 1525 1525 1525
1499 1497 1499 1501 1507 1510 1507 1502 1502 1505 1505 1504 1504 1504 1504 1503 1503 1504 1504 1505 1506 1506 1507 1508 1508 1509 1510 1511 1511 1512 1513 1513 1514 1514 1515 1515 1516 1516 1517 1517 1518 1518 1519 1520 1520 1521 1522 1522 1523
1502 1501 1499 1501 1508 1508 1503 1500 1499 1501 1502 1501 1501 1501 1500 1500 1501 1502 1502 1502 1503 1503 1504 1504 1505 1505 1506 1507 1507 1508 1508 1509 1510 1510 1511 1512 1512 1513 1513 1514 1514 1514 1515 1516 1517 1517 1518 1519 1519
1504 1503 1500 1502 1508 1507 1501 1497 1496 1497 1497 1497 1497 1497 1497 1497 1498 1498 1498 1499 1499 1499 1500 1501 1501 1502 1503 1503 1504 1505 1506 1506 1507 1507 1507 1508 1508 1509 1509 1510 1510 1510 1511 1512 1513 1513 1514 1515 1516
1504 1502 1501 1502 1506 1507 1504 1489 1489 1492 1494 1494 1494 1494 1494 1494 1494 1494 1495 1495 1495 1496 1496 1497 1498 1499 1500 1500 1501 1502 1502 1503 1503 1503 1503 1504 1504 1505 1505 1506 1506 1507 1507 1508 1509 1509 1510 1511 1512
1500 1504 1506 1506 1503 1495 1501 1483 1479 1486 1489 1490 1490 1490 1490 1491 1491 1491 1491 1492 1492 1493 1494 1494 1495 1496 1497 1497 1498 1498 1498 1498 1499 1499 1499 1500 1500 1501 1501 1502 1502 1503 1503 1503 1504 1505 1506 1507 1508
1503 1507 1507 1506 1503 1499 1498 1494 1474 1484 1484 1485 1486 1487 1488 1488 1488 1488 1488 1489 1489 1490 1491 1491 1492 1493 1494 1494 1495 1495 1495 1495 1495 1495 1495 1495 1496 1496 1497 1497 1498 1498 1498 1498 1499 1500 1501 1502 1503
1508 1508 1507 1506 1502 1495 1489 1490 1470 1474 1479 1480 1483 1485 1485 1486 1486 1486 1486 1486 1486 1487 1488 1488 1489 1490 1490 1491 1491 1492 1492 1492 1491 1491 1491 1491 1491 1492 1492 1492 1493 1493 1493 1494 1494 1495 1496 1497 1498
1507 1502 1495 1491 1489 1479 1491 1489 1474 1476 1479 1481 1482 1483 1484 1484 1484 1483 1483 1483 1483 1483 1484 1485 1486 1486 1487 1487 1488 1488 1488 1488 1488 1487 1487 1487 1487 1487 1487 1487 1488 1488 1488 1489 1489 1489 1491 1491 1492
1505 1501 1493 1486 1476 1472 1492 1482 1473 1480 1482 1482 1482 1482 1482 1482 1482 1481 1481 1481 1481 1481 1482 1482 1482 1483 1484 1483 1484 1485 1485 1484 1484 1484 1483 1482 1482 1482 1482 1482 1482 1483 1483 1483 1484 1484 1485 1485 1486
1503 1501 1502 1498 1496 1489 1475 1477 1479 1480 1481 1481 1481 1481 1481 1480 1480 1479 1479 1479 1479 1479 1479 1480 1479 1480 1480 1480 1480 1480 1480 1480 1480 1479 1479 1478 1478 1477 1477 1477 1477 1477 1477 1478 1478 1478 1479 1480 1480
1506 1503 1503 1498 1489 1477 1469 1471 1469 1475 1476 1478 1480 1479 1479 1479 1478 1478 1478 1477 1477 1477 1477 1477 1477 1477 1477 1477 1476 1476 1476 1476 1475 1475 1474 1473 1473 1472 1472 1471 1471 1472 1472 1472 1473 1473 1473 1474 1474
1506 1506 1501 1497 1494 1483 1473 1468 1472 1474 1476 1477 1478 1478 1478 1478 1477 1476 1476 1475 1475 1475 1475 1474 1474 1474 1474 1473 1472 1472 1471 1471 1470 1469 1469 1468 1467 1467 1466 1466 1466 1466 1466 1467 1467 1467 1467 1468 1469
1504 1501 1500 1495 1493 1494 1482 1474 1475 1477 1478 1478 1478 1478 1477 1477 1476 1475 1474 1473 1473 1472 1472 1471 1471 1470 1470 1469 1468 1468 1467 1466 1465 1464 1463 1463 1462 1461 1461 1461 1460 1460 1460 1461 1461 1461 1461 1462 1462